Location: Bushey
(51.6333°N, 0.3667°W)
Time: 14:05:16
(UTC+00:00)

Cosmos 1666 Rocket - Pass Details

Date: 03 March 2021
Orbit: 604 x 632 km, 82.5° (Epoch: 10 April)

Event Time Altitude Azimuth Distance (km) Brightness Sun altitude
Rises 18:58:54 0° 202° (SSW) 2,859 7.2 -12.2°
Reaches altitude 10° 19:01:09 10° 207° (SSW) 1,957 6.4 -12.5°
Maximum altitude 19:05:23 52° 285° (WNW) 758 4.4 -13.2°
Drops below altitude 10° 19:09:38 10° 2° (N) 1,966 6.2 -13.8°
Sets 19:11:55 0° 8° (N) 2,875 7.0 -14.2°
